ZHONGXING-19

Last updated on Thu Jul 03 2025 00:02:49 GMT+0000 (Coordinated Universal Time)

1 54230U 22148A 25183.52761223 -.00000073 00000+0 00000+0 0 9997 2 54230 0.0223 277.6636 0007026 310.6524 45.7917 1.00271044 9872
UTC large
Height (km)
Speed (km/s)
/
Latitude / Longitude
Inclination (degrees)
Orbital Period (minutes)
Azimuth
Elevation
Range (km)
Doppler Factor

Next 0 passes for location: London (51.5072 / 0.1276)

Sorry there are no passes over London.